Location: Wildlife_Club
(35.6000°N, 81.4330°W)
Time: 14:14:12
(UTC-04:00)

Vanguard 2 Rocket - Pass Details

Date: 26 June 2019
Orbit: 554 x 3326 km, 32.9° (Epoch: 21 July)

Event Time Altitude Azimuth Distance (km) Brightness Sun altitude
Rises 04:40:59 0° 279° (W) 5,748 10.6 -15.5°
Reaches altitude 10° 04:44:54 10° 270° (W) 5,098 10.3 -15.0°
Maximum altitude 04:58:06 33° 214° (SW) 4,357 9.8 -13.0°
Drops below altitude 10° 05:14:32 10° 160° (SSE) 6,265 11.0 -10.4°
Sets 05:20:12 0° 152° (SSE) 7,187 11.4 -9.5°
